COSMOS 1275 DEB, 14408

Orbit data source: Space-Track

COSMOS 1275 DEB, 14408 is space debris in LEO originally from a launch on Thu, 04 Jun 1981 UTC launched from the Plesetsk Missile And Space Complex (PKMTR). Debris objects in space refer to the collection of defunct objects orbiting the Earth. Examples of debris include non-operational satellites, rocket bodies, and fragments generated from explosions, collisions, or faulty payload assembly.

Loading next visibility...
Identifier
14408, 1981-053JD
Orbit
LEO
Country
Flag of CISCIS
Related business
Manufacturer
Unknown
Mission
Spacecraft
Bus & Motor
Unknown
Mass
Unknown
Launch date (UTC)
1981-06-04 (44 years ago)
Launch vehicle
Unknown
Launch site
Plesetsk Missile And Space Complex (PKMTR)
Object type
Payload
Rocket body
Debris
Shape & HBR
Unknown shape, 0.1 m
Radar Cross Section
Small (<0.1 m²)

Expand to show TLE details & history
Last TLE update: 1 day ago

TLE from 1 day ago
0 COSMOS 1275 DEB
1 14408U 81053JD  25300.59177890  .00001203  00000-0  12390-2 0  9993
2 14408  82.9631 343.8961 0111852 316.2236 198.9481 13.72677992671549
Epoch: 2025-10-27T14:12Z
TLE epoch observation values (Epoch: 2025-10-27T14:12:09.696Z)
Latitude
25.06305°
Longitude
-88.62801°
Altitude
1,071.057 km
Speed
7.28 km/s
True Right ascension
10h 42m 24s
True Declination
24° 56' 13"
Sunlit
Object was in daylight at epoch
Visualization orbit readout
Latitude
Unknown
Longitude
Unknown
Altitude
Unknown
Speed
Unknown
Apparent Right ascension
Unknown
Apparent Declination
Unknown
Sunlit
N/A
Visualization observer readout
Local Sidereal Time
20:31:16
Azimuth
Unknown
Elevation
Unknown
Doppler factor
Unknown
Orbital elements
Apogee altitude
1,069.505 km
Perigee altitude
904.741 km
Semi-major axis
7,365.26 km
Eccentricity
0.01119
Inclination
82.9631°
RAAN
343.8961°
Arg. of periapsis
316.2236°
True anomaly
198.53735°
Mean anomaly
198.9481°
Eccentric anomaly
198.74218°
Mean motion
3.43369 °/min
Orbital period
104.84 mins
BSTAR
0.001239
Loading maneuver chart data...
Computing Atmospheric mass density...
Loading historical data...
Loading historical data...
Loading historical data...
Loading historical data...
Loading historical data...
Loading historical data...
Loading historical data...

Documentation

Showing up to 5 results
|